This demonstration page uses our WeatherBlox Daily Observations layout. Learn more.

Left ArrowRight Arrow

47.50024, -111.30081

Hourly Observations for April 7, 2022

Temp ( °F °C ) Dew Point ( °F °C ) Humidity (%) Winds ( mph kmh ) Pressure ( in mb ) Visibility ( mi km ) Precip ( " mm )
12:53 am 00:53 Clear 24 -4.4 13 -10.6 62 62 SW 12 19 30.55 1035 10 16 0.00 0.00
1:53 am 01:53 Clear 26 -3.3 14 -10 60 60 SW 13 20 30.55 1035 10 16 0.00 0.00
2:53 am 02:53 Clear 25 -3.9 14 -10 63 63 SW 12 19 30.56 1035 10 16 0.00 0.00
3:53 am 03:53 Clear 26 -3.3 14 -10 60 60 SSW 13 20 30.56 1035 10 16 0.00 0.00
4:53 am 04:53 Clear 23 -5 12 -11.1 63 63 Calm 30.56 1035 10 16 0.00 0.00
5:53 am 05:53 Clear 22 -5.6 12 -11.1 66 66 Calm 30.57 1035 10 16 0.00 0.00
6:53 am 06:53 Sunny 24 -4.4 13 -10.6 62 62 ESE 7 11 30.58 1036 10 16 0.00 0.00
7:53 am 07:53 Sunny 30 -1.1 16 -8.9 56 56 SE 5 7 30.58 1036 10 16 0.00 0.00
8:53 am 08:53 Sunny 38 3.3 17 -8.3 43 43 SSW 9 15 30.60 1036 10 16 0.00 0.00
9:53 am 09:53 Sunny 43 6.1 17 -8.3 35 35 SSW 9 15 30.58 1036 10 16 0.00 0.00
10:53 am 10:53 Sunny 48 8.9 15 -9.4 27 27 S 7 11 30.56 1035 10 16 0.00 0.00
11:53 am 11:53 Sunny 51 10.6 15 -9.4 24 24 VRB 6 9 30.53 1034 10 16 0.00 0.00
12:53 pm 12:53 Sunny 53 11.7 11 -11.7 18 18 SW 6 9 30.51 1033 10 16 0.00 0.00
1:53 pm 13:53 Sunny 56 13.3 13 -10.6 18 18 VRB 6 9 30.48 1032 10 16 0.00 0.00
2:53 pm 14:53 Sunny 59 15 13 -10.6 16 16 Calm 30.44 1031 10 16 0.00 0.00
3:53 pm 15:53 Sunny 61 16.1 14 -10 16 16 WSW 5 7 30.40 1029 10 16 0.00 0.00
4:53 pm 16:53 Sunny 62 16.7 15 -9.4 16 16 SW 7 11 30.38 1029 10 16 0.00 0.00
5:53 pm 17:53 Sunny 62 16.7 15 -9.4 16 16 SSW 6 9 30.37 1029 10 16 0.00 0.00
6:53 pm 18:53 Sunny 60 15.6 17 -8.3 19 19 SW 7 11 30.36 1028 10 16 0.00 0.00
7:53 pm 19:53 Sunny 50 10 18 -7.8 28 28 SSW 8 13 30.35 1028 10 16 0.00 0.00
8:53 pm 20:53 Clear 44 6.7 18 -7.8 35 35 SW 10 17 30.34 1027 10 16 0.00 0.00
9:53 pm 21:53 Clear 43 6.1 19 -7.2 38 38 SSW 9 15 30.32 1027 10 16 0.00 0.00
10:53 pm 22:53 Clear 40 4.4 19 -7.2 43 43 SSW 10 17 30.29 1026 10 16 0.00 0.00
11:53 pm 23:53 Clear 41 5 19 -7.2 41 41 SSW 9 15 30.27 1025 10 16 0.00 0.00

Powered by AerisWeather